sat.trackr.live / text

‹ back to catalog

STARLINK-11437 [DTC]

NORAD 62884 · 2025-024F

PAYLOAD ACTIVE UNKNOWN

§ Identity

Operator
Country
US
Launch date
2025-02-04
Launch site
AFETR
Launch vehicle
Mass (kg)
RCS (m²)

Purposes: comms

External: N2YO · Heavens-Above · Gunter

§ Orbital elements

Epoch: 2026-09-20T21:09:22.659264Z

Period
91.66 min
Inclination
42.9996°
Eccentricity
0.0001441
Mean motion
15.70994058 rev/d
Perigee alt
355.1 km
Apogee alt
357.0 km
Semi-major
6,734.2 km
B*
1.2173e-3
RAAN
85.0444°
Arg perigee
296.4421°
Mean anomaly
63.6299°
Rev number
9,416

§ Raw data

STARLINK-11437 [DTC]1 62884U 25024F   26263.88151226  .00159822  00000+0  12173-2 0  99952 62884  42.9996  85.0444 0001441 296.4421  63.6299 15.70994058 94165

JSON: /api/v1/satellites/62884 · /tle

For live sub-satellite position, see the globe view (requires WebGL).

§ Visibility from observer

Set your observer location to see the next 7 days of passes ≥ 10°. The values pass through the URL so the page stays shareable.

No JS? Fill the form by hand. The geolocation button needs JavaScript.